Wind_Speed
39 38 37 36 35 36 37 38 38 38 37 36 36 37 37 37 37 36 36 35 34 34 34 34 33 32 33 33 33 33 33 32 31 31 30 28 26 26 26 27 26 24 22 23 24 22 21 21 19 17 15 15 16 15 13 12 11 11 9 9 11 12 13 14 11 10 12 13 13 13 13 13 15 15 15 15 15 15 16 18 19 20 20 21 21
40 38 36 36 36 36 37 38 39 38 37 37 37 38 38 38 37 36 36 36 35 35 35 35 35 33 33 34 34 35 34 34 34 33 32 30 29 28 28 29 29 28 25 25 25 23 21 22 21 19 18 17 17 16 15 15 14 12 12 11 13 15 15 15 14 12 12 13 13 14 15 14 15 15 14 15 16 17 18 19 19 20 20 21 22
39 38 37 37 37 37 37 39 39 38 38 37 38 39 39 38 38 37 37 36 35 36 36 36 36 35 34 34 35 36 37 36 36 35 34 32 31 31 30 30 30 30 29 27 26 24 23 24 23 21 19 18 17 16 16 15 14 13 14 13 13 13 14 13 13 13 13 14 14 14 15 15 16 16 15 16 17 19 19 19 19 20 21 22 22
38 38 38 37 37 37 38 39 39 39 38 39 39 39 39 39 39 38 37 37 36 37 37 36 37 37 36 36 35 36 37 38 37 36 35 35 34 33 32 31 31 31 31 30 28 27 25 25 24 22 21 19 18 17 16 15 15 14 15 15 13 11 11 11 12 13 13 13 14 16 16 17 18 18 18 18 19 19 19 19 19 20 21 21 22
37 38 38 37 37 38 39 39 39 39 39 40 40 40 39 38 39 39 38 38 38 37 37 36 37 38 39 39 38 37 37 38 37 36 36 36 35 35 34 33 32 32 32 32 31 30 29 27 24 22 21 19 18 18 17 15 15 15 15 16 15 12 11 11 12 12 12 13 15 18 18 18 20 21 19 19 20 20 19 19 20 21 22 22 21
37 37 38 38 38 40 40 40 40 41 41 41 40 40 39 38 38 39 39 39 38 38 37 37 37 38 39 39 39 39 38 38 38 37 37 36 36 35 35 34 33 33 33 33 33 32 31 29 26 23 21 20 19 18 16 15 15 15 16 16 16 14 11 10 11 12 13 14 16 19 20 20 21 21 19 18 19 20 20 21 22 21 21 21 21
36 36 38 39 39 40 41 41 41 42 42 42 41 40 40 39 39 39 39 39 38 37 38 38 38 38 38 38 38 38 37 37 37 37 36 36 36 36 35 35 36 35 32 31 32 32 30 28 26 23 21 20 19 17 14 14 14 15 16 16 16 14 11 9 10 12 13 14 16 18 20 21 20 20 19 17 17 18 19 20 21 20 20 20 20
36 36 37 39 40 41 43 42 42 42 43 42 41 40 40 40 39 38 38 38 38 37 36 36 36 36 36 36 35 35 35 35 36 36 35 34 35 36 36 36 35 33 30 29 29 28 27 26 24 22 20 19 18 16 14 14 14 14 14 15 15 13 11 10 10 10 10 11 14 16 18 20 20 20 18 17 16 16 16 15 16 18 19 18 18
37 37 37 39 41 43 43 42 41 41 42 41 41 40 40 40 39 37 37 38 37 35 33 32 33 33 33 33 32 33 33 34 35 35 34 34 35 36 37 35 32 30 29 29 27 25 25 24 21 19 18 17 16 15 14 14 14 14 13 12 12 11 11 10 9 8 9 10 13 16 16 18 20 19 17 16 15 15 15 15 16 17 18 20 22
38 37 38 40 41 42 42 40 40 40 41 41 42 41 40 39 37 36 36 37 36 33 31 30 31 32 31 31 31 32 33 35 36 36 36 36 36 37 35 33 32 31 29 26 25 24 23 21 18 17 17 16 15 15 14 14 16 16 14 13 12 12 11 11 11 11 11 13 15 16 15 17 20 19 17 17 16 16 17 16 16 17 19 20 22
39 39 39 40 41 41 40 39 39 40 40 40 40 40 39 37 36 34 33 34 33 32 31 30 30 31 31 31 32 33 34 36 36 36 37 37 37 36 34 33 33 31 27 24 23 22 20 19 18 18 18 17 17 16 14 14 15 16 16 16 16 15 15 16 17 17 16 15 17 17 16 18 21 20 19 19 19 18 17 15 15 18 18 15 16
40 40 40 40 40 40 39 39 39 39 40 39 38 38 37 35 33 32 31 32 32 32 32 31 30 30 31 32 33 34 35 36 36 37 37 38 38 36 33 32 31 28 27 25 24 22 21 20 20 19 18 18 18 17 15 15 15 14 15 16 16 17 17 18 19 19 18 18 18 19 20 20 20 21 22 20 19 17 16 16 16 17 17 15 14
41 41 40 41 42 41 40 40 39 39 39 39 37 36 35 33 32 31 30 30 31 32 32 30 28 28 30 31 32 34 35 35 37 37 37 38 39 36 31 29 28 28 28 27 25 23 22 21 21 21 20 19 18 17 16 15 14 14 14 14 14 15 15 16 17 18 20 20 21 23 24 22 20 22 23 20 17 17 16 17 18 18 18 18 19
39 41 41 41 42 42 41 40 40 39 39 38 35 34 34 32 31 30 28 28 29 30 30 28 26 26 28 29 31 33 35 36 37 36 35 37 39 36 31 28 27 27 27 27 25 23 23 24 24 22 21 19 18 16 15 14 13 14 14 14 14 14 16 17 18 19 21 21 22 24 24 22 22 24 24 22 20 18 17 17 18 20 21 22 24
38 40 41 41 42 42 41 40 39 38 37 36 35 34 33 32 30 28 27 27 28 28 28 26 24 24 26 28 30 32 33 34 34 33 33 35 37 35 31 28 27 26 27 28 26 25 26 27 25 22 20 18 16 15 15 14 14 15 15 15 16 16 17 18 18 19 20 20 20 20 20 20 22 22 22 22 21 18 16 17 19 21 23 23 25
36 39 40 40 41 42 41 39 38 36 35 35 34 33 32 31 29 28 27 25 25 25 26 25 25 25 25 26 26 26 26 27 28 29 30 32 34 34 31 29 29 28 27 26 25 25 26 26 23 19 17 16 15 15 15 14 15 15 15 16 16 17 18 18 17 17 17 17 18 19 20 22 22 21 19 17 16 15 17 20 20 21 21 20 21
34 38 40 40 40 41 41 38 36 35 35 34 33 33 33 32 30 27 26 24 24 23 23 23 24 24 23 22 19 18 18 20 23 25 27 30 34 33 31 30 29 28 26 25 24 24 24 23 20 16 16 16 16 15 14 14 15 16 16 16 16 18 19 17 13 12 11 12 12 14 15 16 16 14 13 14 15 18 21 21 20 21 20 17 16
34 37 40 40 40 40 40 38 37 36 36 35 34 33 33 32 30 28 26 24 22 22 21 20 20 20 21 21 19 18 17 18 20 22 26 30 34 33 31 30 29 27 25 23 22 22 22 21 18 16 17 18 17 16 15 15 16 16 16 15 15 16 16 14 10 9 10 11 11 11 11 10 10 11 14 17 19 20 20 20 22 23 21 17 16
36 38 40 40 39 39 39 39 38 38 37 35 35 34 33 31 29 27 24 22 20 19 19 18 18 18 19 20 20 19 19 19 19 21 26 31 33 32 31 29 27 25 23 22 20 20 20 19 18 16 16 17 18 18 16 16 17 17 16 14 13 13 13 11 10 11 13 14 15 15 15 15 16 17 17 17 16 17 19 23 25 25 24 21 19
37 38 39 38 38 39 39 39 39 38 37 35 34 33 31 29 27 24 22 20 18 17 16 17 17 17 17 18 19 18 18 19 20 22 27 31 33 32 30 28 25 24 23 22 20 20 19 19 17 16 17 18 19 18 16 15 16 16 14 13 11 11 12 13 13 13 15 16 17 18 19 19 19 17 15 14 14 15 16 16 16 16 16 17 17
36 36 37 37 38 39 39 39 39 37 36 35 33 31 29 28 27 25 22 21 19 18 17 16 16 16 16 16 16 16 16 17 20 24 27 30 32 32 29 26 25 25 24 22 22 21 20 19 18 18 19 20 19 18 16 16 15 14 13 12 11 12 14 15 15 16 17 18 19 19 19 18 16 14 14 14 12 10 9 9 10 13 13 14 15
37 37 38 38 38 38 38 38 38 36 36 35 33 30 29 28 28 26 24 23 21 20 18 17 17 16 15 14 14 14 14 15 19 24 27 29 31 31 28 25 24 24 23 22 22 20 19 19 19 20 20 19 19 18 17 15 13 13 12 11 11 13 14 15 16 17 17 17 16 16 15 15 14 12 12 12 9 8 10 13 17 19 20 19 18
38 37 38 37 37 38 38 38 37 36 36 36 34 32 30 29 28 27 26 24 23 22 20 19 18 18 17 15 14 14 14 15 17 22 26 28 29 28 25 23 23 22 22 21 20 19 20 20 20 19 18 17 17 16 13 10 9 9 9 9 10 12 13 14 14 14 15 14 13 13 13 11 11 11 11 12 13 14 17 20 22 22 20 20 19
36 36 36 36 36 37 37 36 36 37 36 36 35 33 31 30 28 27 26 25 25 23 22 21 21 20 19 18 16 15 16 17 17 20 23 26 26 25 22 21 20 20 21 20 19 19 20 21 19 17 16 15 13 11 8 6 6 7 8 10 10 11 11 12 12 12 12 11 9 10 10 9 10 11 12 13 14 16 19 21 21 19 17 18 20
36 35 34 35 35 35 34 34 35 36 36 36 35 33 31 30 29 28 27 25 25 24 22 22 23 22 21 20 19 17 17 18 19 19 20 21 22 22 22 21 19 19 20 19 18 18 18 18 16 14 13 11 10 7 5 3 5 7 8 8 9 8 8 9 9 10 9 8 8 9 10 11 11 11 10 10 12 16 18 19 18 17 17 19 20
35 34 33 34 34 34 33 33 33 33 33 34 34 33 32 32 30 28 26 25 24 24 23 22 22 22 21 20 19 18 17 18 19 19 18 19 19 20 23 24 22 21 20 18 17 15 14 13 13 13 11 10 8 6 4 4 5 6 6 7 7 7 7 8 10 11 11 11 12 13 14 14 12 10 8 10 14 16 16 16 17 18 19 19 21
35 34 34 34 34 34 34 33 32 32 31 31 31 30 30 31 29 27 25 24 23 22 22 21 21 20 20 20 20 19 18 18 18 18 18 19 20 21 24 27 27 25 22 19 16 15 13 12 12 12 11 9 8 7 7 8 8 8 8 9 8 8 9 10 11 12 13 14 16 17 17 14 10 9 10 14 16 15 13 14 17 18 19 21 23
34 32 33 34 33 34 34 33 32 31 29 29 29 28 28 28 27 25 24 23 23 22 21 21 21 21 21 21 21 20 19 19 19 19 20 20 21 24 26 28 28 26 23 20 16 14 13 12 12 13 12 10 9 10 11 12 11 11 11 11 11 11 12 12 13 14 15 17 19 20 16 10 8 10 13 15 14 13 12 14 16 18 21 22 22
34 30 28 29 30 32 31 31 31 31 30 30 28 26 25 25 24 23 22 22 23 23 23 22 22 22 22 23 22 21 21 21 20 19 19 21 23 25 27 29 29 27 24 21 18 15 14 14 15 15 13 12 12 13 15 15 14 13 14 14 14 14 14 14 15 14 12 12 12 10 8 7 9 11 12 12 12 12 12 13 16 19 21 21 20
31 27 26 27 28 29 29 29 30 32 32 31 29 25 22 21 21 22 21 20 20 20 20 20 20 21 22 23 23 21 20 20 19 17 17 21 23 24 25 27 28 27 24 22 19 18 18 17 16 16 15 15 16 18 19 19 18 17 16 15 15 15 15 14 11 7 4 3 2 1 3 6 8 9 9 11 13 13 12 14 17 19 20 21 21
24 23 25 26 27 28 28 28 30 30 30 30 30 27 24 21 19 19 19 18 18 17 16 16 18 20 22 22 21 19 16 16 16 15 15 17 21 23 24 25 25 25 24 22 20 20 20 18 17 17 17 18 19 20 20 20 20 20 19 16 15 16 14 10 9 7 5 2 2 3 3 5 7 8 10 11 12 13 14 15 17 18 19 20 20
22 21 24 26 26 27 27 28 29 28 28 29 29 28 27 24 20 18 17 17 16 16 15 15 17 20 21 20 19 19 17 16 16 16 15 15 17 19 21 23 23 23 23 23 21 21 20 19 17 18 19 20 21 21 21 22 22 22 20 16 13 14 15 13 9 5 2 2 3 4 4 5 7 9 10 11 12 14 16 17 17 18 19 20 19
25 24 25 26 25 26 26 26 27 27 27 28 28 28 27 25 22 20 19 18 17 17 17 17 18 20 21 20 19 18 18 18 17 18 18 18 16 16 17 19 20 20 22 25 24 21 20 19 16 15 14 14 12 10 9 10 9 9 9 6 6 10 12 9 6 4 3 2 3 4 4 4 7 9 10 11 13 15 16 16 17 18 18 18 19
27 28 27 26 25 25 25 26 25 25 26 27 26 26 26 26 25 24 22 20 19 18 19 19 19 20 20 20 18 17 17 17 17 19 19 18 17 16 17 19 19 20 23 26 26 21 17 14 12 9 5 3 2 3 4 5 4 3 2 3 4 9 10 8 6 4 2 3 4 3 2 4 7 9 10 12 14 14 14 15 17 18 17 18 21
27 27 25 25 26 26 25 26 25 24 24 24 24 24 24 26 27 26 23 21 19 18 18 18 18 18 18 18 17 16 16 16 16 17 18 18 19 19 19 20 22 23 24 25 24 20 15 11 9 7 3 3 4 4 4 4 3 1 1 3 4 8 8 5 2 2 5 7 6 5 6 8 8 8 10 13 14 13 14 17 17 17 18 20 23
26 24 23 24 26 25 24 25 26 25 24 24 23 23 24 24 24 23 22 21 20 19 18 17 17 16 15 16 16 15 15 16 16 17 18 19 20 21 21 23 24 24 24 23 21 18 15 12 10 7 5 5 5 3 2 2 3 3 3 4 4 4 3 0 3 6 8 7 6 5 5 6 6 7 10 12 12 12 15 17 16 17 20 22 23
24 22 23 26 26 25 25 26 26 26 26 25 23 23 24 23 22 21 20 19 19 19 18 17 16 16 15 15 15 16 16 16 17 18 19 20 21 21 21 22 23 22 21 20 18 16 14 12 10 8 6 5 3 2 3 4 5 4 4 4 4 2 1 4 6 7 7 5 5 5 4 5 7 8 9 10 11 13 15 16 17 19 22 22 21
24 23 25 28 28 27 27 26 25 26 25 24 23 24 24 23 21 20 19 19 19 19 19 18 17 17 17 17 16 16 16 17 18 19 20 22 23 21 19 19 19 18 17 17 15 13 13 12 11 10 8 5 4 3 4 4 4 2 2 2 2 2 3 5 6 6 5 5 5 5 4 6 7 7 8 10 12 13 14 17 19 21 21 21 20
23 22 24 27 27 28 28 26 25 25 25 23 21 22 23 22 21 20 20 20 20 19 19 19 18 18 19 19 19 18 19 19 20 22 22 23 23 21 18 17 15 13 15 16 15 13 13 13 12 11 8 6 6 6 5 4 2 0 1 1 1 3 4 5 6 6 7 8 7 4 3 5 6 6 8 10 12 13 16 18 19 19 20 20 21
21 21 23 24 24 24 25 24 22 22 22 20 18 20 23 23 21 20 21 21 20 19 19 19 19 18 20 21 21 21 22 22 23 23 23 23 23 21 20 18 14 10 11 14 14 13 13 13 11 9 9 8 8 8 6 4 2 2 1 1 1 2 3 4 5 6 7 7 6 4 4 4 5 6 9 11 12 14 17 18 17 18 19 20 20
19 20 21 22 22 21 22 21 19 18 19 17 16 20 24 24 22 23 23 22 21 21 20 20 19 18 18 19 21 22 23 23 22 22 22 22 21 20 19 19 16 12 10 10 11 12 12 11 8 7 7 8 8 7 5 4 4 5 3 1 1 1 2 3 5 7 7 6 4 3 2 2 4 7 9 11 12 15 16 16 16 18 19 18 19
19 19 21 21 20 20 21 21 19 18 18 17 15 18 21 23 25 26 24 23 23 22 21 19 17 15 15 18 20 21 20 20 20 19 19 19 18 17 17 18 18 15 11 10 11 13 13 11 9 7 5 5 5 6 6 7 6 4 2 1 0 0 1 3 5 6 5 2 1 1 1 3 6 8 9 10 13 14 14 15 17 18 18 18 18
18 17 18 19 19 20 21 20 19 17 17 17 17 16 17 22 27 28 25 24 23 22 21 19 17 15 15 17 20 20 18 17 18 17 16 16 15 14 13 14 14 13 10 9 11 12 10 9 8 5 3 4 5 5 7 7 5 4 3 2 2 1 2 4 5 5 3 1 0 1 3 5 7 8 9 11 12 13 14 15 17 18 18 17 18
16 14 13 13 18 20 19 17 17 16 15 18 19 16 16 20 25 27 26 24 23 22 21 20 20 19 17 18 21 22 19 16 16 16 15 15 15 15 13 12 12 12 12 11 11 10 8 7 6 4 4 5 6 5 6 6 5 4 4 3 2 2 3 4 4 3 3 3 3 4 6 7 7 8 9 10 11 13 14 15 16 18 18 17 17
12 12 10 10 15 18 17 15 16 18 18 19 19 19 19 21 23 23 23 23 23 23 22 20 19 20 20 21 24 24 21 17 15 15 14 14 16 18 17 15 14 15 15 13 11 10 8 7 6 5 5 6 7 7 6 5 4 3 2 2 2 2 2 2 2 2 3 4 4 5 7 8 8 8 8 9 11 13 14 14 15 17 17 16 17
13 14 14 13 16 18 18 18 19 21 21 21 20 19 18 18 18 18 18 19 22 23 22 20 19 21 22 22 23 23 22 19 16 15 15 13 14 19 21 19 17 17 15 13 11 10 9 8 8 7 5 5 5 5 5 3 3 3 5 6 4 5 4 3 3 3 4 5 6 8 9 10 11 10 9 9 10 12 13 14 14 15 15 15 18
9 10 10 13 17 19 19 20 21 20 20 20 19 17 15 14 13 13 13 15 18 21 21 21 21 22 22 22 20 19 18 17 15 14 14 11 12 17 21 20 18 16 14 13 13 12 11 11 11 9 7 6 5 4 3 1 3 4 6 6 5 7 7 6 6 6 7 7 9 11 13 14 13 11 9 8 9 11 14 14 13 14 14 15 18
7 6 7 11 15 17 17 17 17 17 16 15 14 14 13 13 13 14 13 13 15 19 20 21 23 23 22 21 19 17 15 14 12 11 11 9 9 12 17 18 17 15 14 14 15 15 14 14 15 13 10 8 6 4 3 3 4 5 5 5 5 6 7 8 8 9 10 11 13 14 14 13 10 7 6 7 8 11 13 12 12 13 14 15 18
12 10 9 9 11 13 14 15 15 15 15 14 11 11 12 13 12 13 13 12 12 15 17 19 22 24 22 20 18 16 16 16 15 13 12 11 9 11 13 15 16 16 16 16 16 15 15 15 15 13 11 9 7 5 4 5 5 5 6 6 7 6 6 7 8 9 11 12 14 14 12 11 8 7 6 6 8 10 12 11 11 13 14 15 20
10 8 7 7 6 6 9 11 11 11 13 13 10 10 13 15 13 12 12 11 11 12 12 12 17 24 25 22 21 20 19 19 17 15 14 13 12 12 14 15 16 16 17 17 16 14 15 16 15 12 11 9 7 6 5 5 5 6 6 6 7 7 7 8 9 10 12 13 14 13 11 10 9 8 6 5 8 10 11 10 11 13 15 17 20
6 6 6 4 5 7 9 10 9 7 8 9 7 7 11 14 13 13 14 14 13 11 6 7 11 17 19 18 19 20 20 19 18 16 15 16 16 16 17 18 17 17 17 17 16 15 16 18 16 13 10 8 7 6 6 6 7 6 6 6 7 8 8 9 10 11 13 13 13 11 10 8 7 6 5 5 8 9 9 10 12 14 16 17 17
Wind_Direction
197 198 199 198 198 198 198 198 199 200 200 199 199 200 202 204 204 203 203 203 203 204 204 203 204 204 204 204 204 205 205 206 205 206 207 208 210 212 210 207 207 207 208 210 211 212 213 214 214 211 208 207 206 204 202 203 208 209 212 226 229 226 222 217 220 243 257 265 274 280 284 285 285 287 289 288 288 287 282 277 275 276 275 276 278
197 197 198 198 199 199 198 199 200 200 200 200 201 203 204 204 204 204 203 203 204 205 205 205 205 205 205 206 206 206 206 205 205 205 206 207 208 210 210 210 210 210 210 210 210 211 215 215 215 216 214 212 210 209 208 207 207 207 210 222 231 229 225 225 228 239 256 266 273 281 286 285 283 285 288 286 285 286 285 281 279 276 274 275 276
197 197 197 198 199 199 199 200 200 200 200 201 203 205 206 206 205 204 204 204 205 206 207 207 206 206 207 207 207 206 206 205 204 205 206 206 206 207 209 211 212 211 212 212 208 209 216 217 215 214 211 211 214 214 215 213 212 213 216 224 230 225 221 226 231 238 254 268 276 281 285 285 283 286 289 287 286 287 287 285 282 278 276 277 277
196 196 197 198 199 199 200 200 200 200 200 202 205 206 207 207 206 206 206 206 206 208 209 209 209 208 208 208 207 206 205 204 205 206 206 206 206 206 207 210 213 214 215 215 211 210 214 213 211 208 208 211 216 218 221 222 223 223 224 226 222 213 215 227 239 251 262 272 280 284 286 287 286 289 294 294 290 288 287 287 286 284 282 280 278
195 196 197 198 198 199 201 201 200 201 201 204 206 207 207 208 208 207 207 207 208 209 210 210 210 210 210 210 210 208 207 206 205 206 207 207 207 207 207 209 213 216 217 218 214 213 215 215 214 212 213 216 218 220 223 224 225 229 231 232 230 225 230 240 251 260 262 268 280 285 285 284 284 289 293 293 290 287 286 287 289 289 287 283 280
194 196 196 197 198 199 201 201 201 201 202 205 206 207 207 208 208 208 208 208 210 210 211 211 211 212 212 212 212 211 210 208 207 207 207 206 207 209 209 209 213 216 218 219 218 217 219 220 221 220 218 219 219 218 221 225 229 231 232 237 239 232 228 238 254 261 260 267 277 281 281 283 286 288 289 287 284 283 287 292 295 294 289 286 284
194 196 196 197 199 200 201 201 202 202 204 206 206 207 208 209 209 210 209 209 210 211 212 213 213 214 214 214 214 213 211 209 208 207 206 206 206 208 210 211 214 216 217 218 219 219 220 221 221 221 220 220 220 218 221 228 234 236 239 243 240 229 226 243 258 262 266 272 276 277 282 288 288 284 285 286 280 279 286 291 294 299 300 294 290
194 196 197 198 199 201 202 202 202 203 204 206 207 208 209 210 211 211 211 211 212 213 213 213 214 215 216 215 215 214 212 210 209 207 205 205 205 208 212 213 215 217 219 220 218 216 218 220 221 222 221 220 223 225 228 235 239 242 243 241 235 233 240 248 252 259 268 272 276 280 286 289 285 281 283 284 280 283 294 295 294 302 307 301 296
194 196 197 199 200 202 202 202 202 203 205 206 207 209 210 211 212 212 212 213 214 214 214 214 214 215 216 216 216 215 213 211 210 208 206 204 206 211 213 213 215 219 221 221 220 218 219 220 220 222 222 222 226 231 238 246 249 246 240 234 235 243 245 239 238 251 264 272 279 284 286 284 282 281 283 284 285 291 301 304 301 302 306 305 300
192 195 197 199 201 202 202 201 201 203 204 206 207 208 210 211 211 212 212 213 214 213 213 214 215 214 213 214 214 214 214 213 213 212 209 207 209 212 212 211 213 217 219 217 215 216 215 213 214 219 224 225 225 230 241 250 249 247 244 244 248 248 245 243 247 257 267 274 277 280 278 276 277 280 282 285 289 294 297 300 301 303 307 307 303
192 194 197 199 200 201 201 201 201 203 204 206 207 208 209 210 210 211 211 210 210 209 210 212 215 214 212 212 212 213 215 215 215 214 212 211 212 212 211 210 212 214 215 210 204 202 203 205 211 218 223 223 223 229 241 247 247 248 250 252 254 253 254 258 260 265 271 273 274 273 268 269 276 281 284 286 288 289 289 291 297 303 304 302 299
192 195 197 197 198 200 200 199 200 202 204 205 206 207 207 208 209 209 208 206 205 205 207 210 212 212 211 210 211 213 215 216 216 215 214 214 213 211 210 210 210 211 210 203 195 193 197 203 211 219 223 223 225 233 245 250 252 252 251 252 254 256 260 262 263 268 273 272 270 270 267 268 275 283 286 287 286 285 284 289 296 296 290 285 282
192 195 196 196 196 198 198 198 199 201 203 204 205 205 205 206 206 206 205 204 202 202 204 207 209 209 208 208 211 214 216 217 217 216 215 215 214 211 208 206 207 208 205 198 191 193 200 207 214 221 225 226 229 237 245 249 251 250 250 251 255 259 262 265 269 274 276 274 270 272 274 273 274 282 286 284 281 283 285 288 293 289 284 282 281
193 194 195 195 196 196 196 196 197 199 200 201 201 201 202 202 201 200 200 198 197 198 200 202 204 206 207 209 213 216 217 217 216 216 216 216 214 209 204 203 205 205 200 194 192 199 209 214 217 220 224 228 230 234 240 246 248 249 250 250 255 262 262 264 271 277 279 277 272 272 278 279 277 281 285 282 280 283 284 286 291 290 287 288 289
192 194 195 195 195 195 195 195 195 196 196 196 196 197 196 194 192 192 192 190 190 191 193 194 197 201 205 210 212 214 215 215 214 214 215 215 212 207 203 203 204 200 195 195 198 205 212 216 217 219 222 226 230 235 241 247 249 251 252 253 256 260 261 264 273 280 282 281 276 276 283 286 284 285 286 284 281 281 285 292 295 293 291 291 293
191 192 195 195 194 193 193 192 192 191 190 189 190 189 186 183 183 185 185 185 187 189 192 196 200 204 205 206 207 208 209 210 210 211 212 212 209 205 202 200 197 192 190 194 199 205 210 214 216 217 221 228 235 239 240 244 248 249 253 259 264 267 270 273 278 283 284 282 281 283 284 284 284 284 284 282 279 283 295 298 296 295 293 289 288
191 192 194 195 193 192 190 188 187 184 182 181 180 179 177 176 176 178 179 181 186 191 196 201 207 211 210 207 206 205 205 208 209 208 208 209 206 200 196 192 187 184 185 188 193 199 206 212 215 218 227 234 238 239 240 242 243 245 252 264 272 277 281 283 283 284 283 283 286 289 287 285 283 281 281 282 287 296 299 296 295 296 292 285 283
192 191 193 193 191 189 187 184 180 177 175 174 173 171 172 174 175 177 179 181 186 193 197 201 205 210 210 208 210 214 214 213 211 207 206 205 199 192 189 185 180 179 182 185 192 200 206 212 218 226 233 237 240 247 249 243 241 246 255 264 271 278 284 285 278 269 267 270 278 285 291 293 290 288 291 292 295 299 295 291 294 291 282 275 277
193 190 191 190 186 183 181 178 174 171 170 170 169 168 170 173 176 180 183 183 182 185 190 194 196 200 203 203 206 211 212 210 208 204 201 197 192 188 185 180 174 176 182 186 193 202 208 214 223 232 237 240 245 252 253 246 244 251 257 259 266 274 276 272 265 265 268 271 277 284 290 295 298 300 301 298 298 300 296 294 294 286 276 274 280
191 188 184 181 178 175 173 171 169 167 165 165 165 166 168 170 172 174 176 177 173 169 171 176 179 185 194 199 201 205 208 205 200 197 194 191 189 188 185 181 179 182 188 194 202 209 216 224 232 237 241 244 247 251 254 251 249 253 255 254 256 257 256 258 263 270 276 280 285 291 296 301 304 305 303 302 305 308 305 303 303 297 284 281 285
181 176 172 169 168 167 167 165 163 162 162 161 160 161 163 165 165 165 165 164 159 154 155 160 164 171 181 191 197 202 205 201 193 191 192 192 192 191 188 186 190 194 197 205 215 219 224 231 235 235 239 245 247 248 252 252 250 250 250 248 247 248 254 265 273 279 283 287 292 297 301 303 303 301 303 306 308 312 313 318 327 326 317 308 304
169 165 162 161 160 159 159 159 158 157 158 157 154 153 155 157 159 160 158 154 150 148 149 153 156 160 167 180 191 194 196 194 188 187 191 195 194 193 192 194 198 201 203 207 214 221 227 232 235 237 242 245 244 244 248 250 245 244 246 248 253 258 267 278 284 287 290 294 298 300 301 301 300 303 310 314 314 315 313 314 318 319 318 317 315
161 157 156 154 154 153 152 152 153 153 154 154 149 146 148 152 154 155 153 149 147 145 147 151 152 152 157 170 183 185 182 185 187 187 190 194 194 193 197 202 204 204 205 208 213 222 230 233 236 239 241 240 239 239 242 241 238 242 250 257 264 270 278 285 290 292 295 298 299 298 299 301 301 303 308 309 309 309 310 312 317 319 318 317 315
153 151 151 149 148 148 147 148 149 149 150 149 145 143 146 149 151 153 152 150 147 145 148 151 151 151 155 164 174 178 175 179 185 188 189 193 195 198 202 205 205 205 207 212 219 226 229 230 232 235 235 234 232 229 224 227 248 262 266 265 269 276 282 286 289 292 294 293 292 294 295 288 286 293 301 302 301 303 308 312 317 320 319 315 313
146 145 145 144 143 143 141 141 143 144 146 147 145 145 147 148 149 152 154 153 150 147 150 154 156 157 158 160 165 171 175 180 185 189 193 196 199 202 203 199 197 201 205 213 223 227 225 225 227 228 228 222 213 205 207 238 266 269 265 263 265 268 270 273 277 279 277 270 268 272 268 263 274 294 302 297 299 308 314 317 318 318 317 314 312
140 139 138 137 138 136 133 133 136 139 142 146 147 149 151 150 149 150 152 152 151 151 154 158 159 160 161 161 162 167 176 184 187 190 196 201 203 203 202 199 200 204 209 215 221 221 220 224 227 225 219 210 203 204 214 227 232 233 236 240 239 234 237 247 257 261 261 259 261 264 264 267 277 290 294 299 311 319 321 321 318 317 318 316 312
135 134 132 131 131 130 129 129 132 135 138 140 143 146 149 149 148 148 149 149 151 155 158 160 161 162 161 161 165 171 175 182 188 192 197 202 206 206 205 207 210 214 219 222 222 223 228 231 226 216 209 205 210 218 217 217 220 218 218 221 221 222 233 245 253 258 261 263 266 272 278 278 276 284 302 315 320 320 322 322 318 315 317 315 308
126 123 123 124 125 126 128 129 130 131 133 135 137 140 145 148 147 149 153 156 157 160 162 165 168 169 164 160 165 171 175 183 193 198 198 200 205 208 209 211 214 217 221 222 221 224 227 216 202 199 203 211 222 224 220 223 229 229 227 229 230 233 239 245 253 261 270 275 276 277 280 279 281 300 313 317 315 316 320 321 315 312 314 311 303
109 112 117 119 121 124 126 129 131 130 130 132 133 136 142 148 149 151 158 165 165 164 167 170 172 172 168 166 167 170 177 191 203 207 204 203 207 210 211 213 215 217 219 220 218 214 208 200 198 203 212 223 229 226 225 229 234 236 239 242 242 241 244 250 258 267 274 276 273 273 274 282 296 306 310 308 309 315 320 320 317 315 313 308 302
111 118 123 123 124 125 126 129 132 132 131 131 129 128 134 145 153 154 159 166 169 169 171 173 174 174 172 174 177 179 185 196 204 208 210 210 212 215 216 217 218 218 217 218 217 209 201 201 208 216 225 230 231 231 232 234 237 240 244 247 248 249 251 253 252 244 221 204 221 289 309 305 304 306 307 306 309 316 324 326 320 314 311 308 305
119 125 128 128 129 128 127 129 131 131 132 132 129 127 127 132 142 148 153 163 171 175 177 177 180 181 179 177 180 184 189 194 197 201 207 211 215 219 220 219 219 218 215 212 209 205 204 207 215 223 230 233 235 238 238 238 241 244 244 246 248 245 237 220 198 186 178 152 53 23 352 328 318 316 317 317 319 326 329 323 316 314 316 315 311
130 132 131 131 130 128 128 131 131 131 131 132 133 133 129 124 123 129 138 150 160 169 176 179 180 183 185 183 180 180 184 191 196 200 203 204 209 217 220 220 220 220 215 208 202 201 205 210 216 224 230 234 240 247 249 247 247 245 239 238 237 225 210 193 180 177 162 80 50 26 4 348 338 334 332 331 329 326 320 315 317 321 323 322 322
136 136 134 132 129 128 131 133 133 135 137 137 139 140 137 132 126 122 125 133 140 149 157 161 164 170 177 180 181 181 183 189 195 199 199 197 197 199 204 208 211 210 205 200 198 200 207 214 224 235 237 233 237 246 243 235 230 220 213 212 199 189 181 168 147 123 104 78 15 355 349 341 336 334 331 328 322 316 315 320 327 328 326 328 331
135 137 139 138 133 132 136 137 138 141 144 145 146 145 143 143 139 132 128 128 130 134 140 144 148 155 162 166 171 176 179 182 187 191 193 191 188 186 188 193 198 199 199 199 200 203 208 216 229 246 247 207 165 125 111 104 96 106 95 64 119 147 146 135 129 120 82 11 345 337 314 313 322 322 318 317 316 317 324 330 331 331 333 334 330
135 138 140 139 136 136 140 143 144 145 146 148 149 148 147 147 146 144 141 139 135 132 134 137 141 147 154 158 161 166 170 173 178 184 188 188 187 186 185 185 187 191 195 198 201 205 210 218 234 248 237 143 127 116 103 87 75 89 61 57 108 139 143 140 136 22 354 339 323 307 299 305 313 311 309 313 320 329 337 336 333 334 335 330 324
138 139 138 139 140 141 143 147 149 149 150 150 149 150 152 152 152 152 151 150 148 145 142 141 141 143 150 156 161 166 171 172 175 181 185 187 188 188 184 181 182 186 190 195 200 207 215 225 238 239 209 159 136 119 100 95 109 120 106 90 112 146 158 14 349 351 352 350 342 329 316 315 318 312 311 321 333 341 339 337 335 333 329 324 322
138 137 137 140 144 145 148 153 156 156 156 154 151 153 157 158 158 158 157 156 158 157 153 151 150 148 150 156 163 168 170 171 174 180 183 186 189 190 189 188 186 187 191 197 205 214 222 228 226 212 190 175 163 138 122 126 128 120 94 81 93 111 23 348 344 344 354 10 11 356 338 329 327 325 327 338 345 342 337 334 329 325 324 325 326
140 139 140 143 146 148 149 154 158 159 160 160 157 157 161 163 163 163 163 164 167 167 163 162 163 163 164 165 167 169 169 169 174 179 182 185 187 187 187 189 191 196 204 209 211 214 217 215 210 202 194 194 196 172 145 143 146 130 48 41 59 48 14 355 345 338 330 325 325 328 331 334 336 339 342 344 342 338 331 326 323 322 325 330 332
138 140 141 142 145 147 149 151 154 157 160 162 159 156 158 163 166 167 165 165 169 171 171 170 171 175 177 176 174 172 171 173 178 182 184 188 190 189 188 189 193 207 216 211 204 208 212 211 211 212 210 206 203 197 191 190 194 6 19 24 19 9 2 351 340 323 307 303 300 296 321 337 338 335 335 338 339 334 326 323 326 328 330 332 335
132 135 138 140 142 147 152 154 155 158 162 165 164 161 161 165 169 168 164 163 167 173 174 174 177 183 187 186 184 181 179 180 184 187 188 191 194 195 196 197 199 205 208 204 204 212 215 209 203 205 211 211 202 194 192 191 186 184 172 98 32 1 348 345 335 317 307 303 295 286 309 323 319 320 330 336 336 330 327 328 333 334 333 335 338
131 131 136 140 144 149 154 157 160 165 171 173 169 165 166 168 168 165 163 163 167 172 175 178 183 189 193 193 192 190 187 186 187 191 193 196 199 201 204 206 206 205 207 213 211 202 192 184 172 170 191 206 203 199 201 201 189 184 181 144 62 15 346 337 320 306 303 299 287 286 309 315 319 331 337 334 331 332 334 335 335 333 334 338 341
132 135 139 142 147 152 154 157 163 171 176 176 169 165 166 166 164 164 165 166 168 171 173 177 183 190 193 194 192 190 188 187 188 191 196 199 203 207 212 213 212 211 216 222 208 188 178 176 171 161 163 181 190 190 191 191 190 188 186 194 313 343 336 316 301 300 311 317 164 119 55 348 337 341 337 329 331 337 339 335 334 335 337 340 342
137 138 141 147 154 157 156 159 165 169 171 173 173 173 169 163 161 163 165 164 166 169 171 174 179 184 188 192 189 183 181 186 191 195 200 201 202 204 207 208 208 207 206 201 190 182 177 180 185 190 198 204 206 203 198 201 218 235 229 231 246 252 285 289 283 286 301 305 146 9 342 334 335 335 327 325 331 335 335 334 335 336 335 337 339
134 127 131 148 158 162 166 170 171 168 168 170 170 167 158 153 155 158 160 160 162 166 170 175 180 180 180 186 187 183 180 183 191 197 203 204 204 202 195 188 192 197 193 183 179 182 185 185 188 208 234 232 229 226 217 219 232 229 215 223 242 247 276 284 268 258 267 268 278 305 312 314 319 320 318 320 326 329 332 335 333 331 333 338 339
148 142 148 155 156 160 169 171 162 155 153 151 147 142 139 141 146 150 153 157 161 166 171 176 179 177 176 181 186 188 190 191 194 199 205 211 215 212 203 192 192 196 193 188 186 189 193 194 192 199 214 221 224 223 224 231 236 234 259 314 301 266 276 271 223 220 242 256 275 295 301 302 305 305 305 312 322 329 332 330 328 331 339 341 334
150 154 161 159 151 151 154 151 146 143 140 137 135 133 130 132 139 144 145 150 157 164 172 177 179 178 178 180 185 192 198 201 206 211 213 217 220 214 205 196 191 191 192 195 197 196 196 201 204 201 193 192 199 207 216 239 272 299 327 334 311 277 273 265 255 271 279 281 295 303 301 299 299 295 294 306 323 330 328 322 326 336 340 333 327
115 118 129 137 137 136 134 135 136 137 135 135 137 135 131 135 146 149 148 151 158 163 170 176 178 179 179 181 186 192 198 203 211 215 211 211 214 206 198 192 189 190 195 199 199 196 195 198 200 195 178 164 166 180 195 256 314 322 327 321 285 267 271 274 279 291 295 298 304 303 300 300 299 293 292 306 321 324 321 321 330 337 331 323 324
129 117 115 129 135 134 132 132 133 133 135 140 141 140 144 153 153 149 153 162 165 166 171 177 180 181 183 185 187 188 189 190 197 201 199 199 198 191 187 186 186 189 192 192 190 191 196 199 201 201 197 190 188 202 234 275 295 306 310 296 266 259 269 275 282 291 297 301 306 304 300 297 292 281 284 301 311 318 322 326 333 333 324 322 329
119 121 113 112 122 130 132 133 137 145 157 163 160 159 166 168 156 151 159 167 168 171 178 182 181 181 184 185 185 186 189 190 190 193 197 197 188 178 179 183 187 190 194 194 192 195 199 200 200 201 199 197 205 227 253 272 284 292 296 284 268 264 267 272 281 293 300 305 310 308 300 291 280 266 271 290 307 322 330 331 330 329 326 327 331
108 104 84 63 71 106 120 123 131 149 163 165 163 168 172 167 158 160 171 181 188 196 201 195 185 185 187 187 187 190 195 195 192 191 193 196 195 190 184 183 186 192 197 199 200 200 197 193 192 194 195 199 213 231 244 257 270 277 283 278 269 268 274 279 288 300 308 312 314 309 298 289 277 258 255 288 318 329 332 329 326 328 328 328 331
142 144 142 147 169 170 155 139 132 135 146 152 157 165 166 167 173 182 185 189 194 189 161 125 145 165 175 181 185 190 196 200 200 198 198 201 202 197 191 189 190 190 191 195 199 198 191 185 185 190 197 204 215 226 237 250 259 263 271 273 268 270 279 284 291 302 311 316 315 308 299 290 268 242 247 308 329 328 324 321 322 325 329 332 338
Height
743 747 751 754 758 760 763 764 766 768 770 772 774 776 777 778 780 782 784 786 788 791 793 795 796 798 800 801 803 805 806 807 809 811 812 814 815 817 819 820 821 821 822 823 824 825 826 826 827 827 827 827 827 828 828 829 830 830 832 832 833 834 835 836 836 835 836 836 836 836 837 837 837 837 837 836 836 836 836 836 835 834 833 832 831
738 743 747 751 754 757 759 761 762 764 767 769 771 772 774 775 777 780 781 783 785 787 789 791 793 795 797 798 800 801 802 804 805 807 809 811 812 814 816 817 818 819 820 820 821 823 824 824 824 825 825 825 825 826 826 827 828 828 829 830 831 832 833 834 834 834 834 834 834 834 835 835 835 835 836 835 835 835 834 834 833 832 831 830 829
734 739 744 747 750 753 756 757 759 761 763 765 767 768 770 772 774 776 778 780 782 784 786 788 790 792 794 795 796 798 799 800 802 804 805 808 809 811 813 815 816 816 817 818 819 820 821 821 821 822 823 823 824 825 825 826 827 827 828 829 829 830 831 832 832 832 832 831 832 832 832 833 833 833 833 833 833 833 832 832 831 830 829 828 827
731 736 739 743 747 750 752 753 756 758 759 761 763 764 767 769 771 773 774 777 778 780 783 784 787 789 790 792 793 794 796 797 799 801 802 805 806 808 811 812 813 814 815 815 816 817 818 818 819 820 821 822 823 824 825 826 827 827 828 828 828 828 829 830 831 831 830 829 829 830 830 830 830 830 831 831 831 831 830 829 828 828 827 826 825
727 731 735 739 743 745 747 749 752 754 755 757 758 761 764 766 767 769 771 773 775 777 779 781 783 785 786 788 789 791 793 794 796 797 799 802 804 806 808 809 811 812 812 813 814 814 815 816 817 819 820 820 821 823 824 825 826 826 827 827 827 827 827 828 829 829 829 829 828 828 828 828 828 828 828 828 828 827 827 826 826 825 824 823 822
723 727 731 735 738 740 742 745 747 749 751 752 755 757 760 762 764 765 767 769 771 773 775 778 779 781 782 784 786 788 790 792 793 794 797 799 802 804 805 807 809 809 809 810 811 812 813 814 816 817 818 819 820 822 823 824 824 824 825 826 827 826 825 826 827 828 828 828 827 827 827 827 826 825 826 826 826 824 824 823 822 821 821 820 819
719 723 727 730 733 735 737 739 742 744 746 748 751 753 756 758 759 761 763 765 767 769 771 773 775 777 780 782 784 786 788 790 791 793 794 796 799 802 803 804 805 805 807 808 810 811 812 814 815 816 817 818 820 821 822 823 823 823 824 824 825 824 823 824 825 825 826 826 826 825 825 824 824 823 823 824 823 822 821 820 819 818 818 817 816
715 719 722 725 727 729 731 734 737 740 742 744 747 750 752 754 756 758 760 762 763 765 768 771 773 776 778 780 782 784 786 788 789 791 793 795 797 799 800 801 803 805 806 808 809 810 812 813 814 816 817 818 819 820 821 821 822 822 822 823 823 823 822 821 822 823 824 824 824 823 823 822 821 821 821 821 820 819 819 818 816 815 815 814 814
710 714 717 720 722 724 727 730 733 736 739 741 744 746 748 750 753 755 757 758 761 764 767 770 772 774 776 778 780 782 784 786 787 789 791 793 795 796 797 800 803 805 806 806 808 809 811 812 814 816 817 817 818 819 820 820 821 821 821 821 821 821 820 819 819 820 821 821 821 821 821 820 819 818 818 817 817 817 816 816 814 813 813 812 811
704 709 712 714 717 720 723 727 730 732 735 736 739 741 744 747 750 752 754 756 759 762 765 767 769 770 773 775 777 779 781 782 784 786 788 790 792 793 795 798 801 802 803 804 807 808 810 812 814 816 817 817 817 817 818 819 819 819 819 819 819 819 819 818 817 817 818 818 818 819 818 817 816 816 815 815 815 814 813 813 812 811 811 809 808
698 702 705 709 713 716 720 723 726 728 730 732 735 738 741 744 747 750 752 754 757 759 762 764 765 766 768 771 773 774 776 778 780 782 785 787 789 790 792 794 797 799 801 803 805 807 809 812 813 815 815 814 815 815 816 817 817 817 817 817 817 817 817 816 816 815 816 816 816 816 815 814 813 813 813 813 812 812 811 811 810 809 809 808 806
692 696 699 704 708 711 715 718 721 724 726 729 732 735 739 742 744 747 749 751 753 755 758 759 760 763 765 767 769 770 771 773 776 778 781 783 785 787 789 791 794 797 798 800 802 804 807 810 811 812 812 812 812 813 814 815 815 815 815 815 815 814 814 814 813 813 814 814 813 813 812 811 811 811 812 811 810 810 809 809 808 807 807 806 805
687 690 694 699 702 705 710 713 716 719 722 725 729 732 736 739 741 743 745 747 749 751 754 756 757 760 762 763 765 767 768 770 771 773 776 779 781 783 786 790 792 794 795 797 799 802 804 807 808 809 810 810 811 812 812 813 813 813 813 813 813 812 812 812 811 811 811 811 810 809 809 809 809 809 809 809 808 808 807 806 806 805 805 804 803
681 684 688 692 695 700 704 707 711 714 717 722 726 729 732 735 737 739 741 743 746 748 751 753 755 757 758 760 761 762 762 764 766 769 772 775 778 780 784 787 789 791 793 795 798 800 802 804 805 805 807 808 810 811 811 811 811 811 811 811 810 810 809 809 808 808 808 808 807 806 806 807 806 806 806 807 806 806 805 804 804 803 802 802 800
675 679 683 686 690 694 698 702 706 710 714 718 722 725 728 731 733 736 738 741 743 745 748 750 752 753 754 755 755 756 758 760 763 767 770 773 776 779 782 784 786 788 790 793 795 797 800 802 803 804 805 807 809 809 809 809 809 809 809 808 808 807 806 806 806 805 805 805 804 804 804 804 804 803 804 804 804 803 803 803 802 801 800 798 797
669 673 677 680 684 688 692 697 701 706 710 714 717 720 724 727 730 733 735 738 740 742 745 747 748 750 751 753 754 756 758 761 763 765 767 770 774 776 779 782 783 785 787 790 793 796 798 801 802 803 804 806 807 808 807 807 807 806 806 805 805 804 803 804 804 803 803 803 802 802 801 801 801 801 802 802 802 802 801 800 799 798 797 796 794
664 667 670 674 678 683 687 692 697 701 705 709 713 716 720 723 727 729 732 735 737 739 741 744 746 749 751 754 756 758 760 762 763 763 765 767 771 773 776 779 780 783 786 788 791 794 797 799 800 802 803 804 805 806 805 805 805 804 804 803 802 801 801 801 801 801 801 801 801 800 800 800 800 800 800 800 800 800 799 797 796 796 795 794 792
658 661 665 668 673 678 682 687 692 696 700 704 709 712 716 720 724 726 729 732 734 737 740 742 745 748 750 753 755 757 760 761 762 761 762 765 768 770 773 776 779 782 785 788 790 793 795 797 799 800 801 802 803 804 803 803 803 802 802 801 800 799 798 799 799 800 799 799 799 799 798 798 798 798 798 798 798 797 796 795 794 794 793 792 790
652 655 659 663 668 673 678 682 687 691 696 701 705 709 713 717 721 724 728 730 733 736 739 741 744 746 749 750 752 754 757 759 760 760 761 763 766 769 772 775 778 781 784 787 789 791 793 795 797 798 799 800 801 801 802 801 801 801 800 799 798 797 797 798 798 798 797 797 796 796 796 796 796 796 796 795 795 795 794 793 793 792 791 791 790
646 650 654 659 665 669 673 678 683 687 693 698 702 707 711 715 720 723 726 729 732 735 737 740 743 745 748 749 750 752 754 756 758 759 760 763 765 768 772 774 777 780 783 785 788 789 792 793 795 796 797 798 799 799 799 799 799 798 798 797 796 795 796 797 797 796 796 795 795 795 794 794 794 794 793 793 793 793 793 792 792 791 790 790 789
641 646 651 655 661 666 670 675 680 685 691 696 701 706 709 713 717 721 724 727 730 733 736 739 742 745 747 749 750 752 753 755 756 757 759 762 764 767 770 773 776 779 781 784 786 787 789 791 792 794 795 795 796 796 796 797 796 796 796 795 794 794 795 795 795 795 794 794 793 793 792 792 792 792 792 792 792 792 792 791 791 790 789 788 787
638 642 647 652 658 663 668 673 678 683 689 693 698 704 707 711 715 718 722 726 729 732 735 738 741 744 746 749 751 752 753 754 754 756 758 761 763 766 769 772 775 778 780 782 784 786 788 789 790 791 792 793 793 794 794 794 794 794 794 793 793 793 794 794 793 793 792 792 791 791 791 790 790 790 791 791 791 790 790 789 789 788 787 786 784
635 639 645 651 656 661 666 671 676 681 686 691 696 701 705 710 714 717 721 725 728 732 735 737 740 742 744 748 750 751 752 753 754 756 758 761 764 766 769 772 774 777 779 781 782 784 785 786 787 789 790 790 791 791 791 792 792 792 792 792 792 792 792 792 792 791 790 790 790 789 789 789 789 790 790 789 789 788 788 787 786 785 784 783 782
634 639 644 650 655 661 666 670 674 679 684 689 693 698 703 708 713 717 720 723 727 731 733 736 738 740 743 745 747 748 750 752 754 756 758 761 764 766 769 771 774 776 778 780 781 783 783 784 785 786 787 788 789 789 789 790 790 790 790 790 790 790 790 790 790 789 789 788 788 788 788 788 788 788 788 787 787 786 785 784 784 783 782 781 780
632 638 644 649 655 661 666 671 675 679 683 688 692 697 702 707 711 716 719 722 726 729 732 734 736 738 741 743 744 745 748 751 754 756 758 761 763 766 768 771 773 775 777 779 780 781 782 783 784 785 786 787 787 787 788 788 788 788 788 788 789 789 789 788 788 788 788 787 787 787 786 786 786 786 786 786 785 784 784 783 782 781 781 780 778
631 638 644 650 656 661 666 672 677 681 685 688 692 697 701 705 710 715 718 722 725 727 730 732 734 737 740 741 741 743 747 750 753 755 757 760 762 765 768 770 773 775 776 778 779 780 781 783 783 784 785 785 785 786 786 786 786 786 786 787 787 787 787 787 787 787 786 786 786 785 785 785 786 786 785 784 784 783 782 781 780 780 779 778 776
631 638 643 649 655 660 666 672 678 682 687 690 694 699 703 706 710 714 717 720 724 727 730 731 734 736 738 738 740 742 746 749 751 754 756 758 761 764 767 769 772 774 775 777 778 779 781 782 783 784 784 784 784 784 784 785 785 785 785 785 785 785 785 785 785 785 785 785 785 785 785 786 785 785 784 784 783 782 781 780 779 778 778 777 775
632 639 645 651 656 661 668 674 680 684 689 692 696 701 704 707 710 713 716 719 722 725 728 730 732 734 734 735 738 742 745 747 749 751 754 756 759 762 765 767 770 772 774 776 777 779 780 781 782 783 783 782 783 783 783 783 783 783 783 783 783 783 783 783 783 784 784 784 784 784 785 785 784 784 783 782 782 781 780 779 778 778 776 775 773
639 649 656 659 662 666 672 678 681 685 689 693 697 702 705 708 711 713 716 719 721 723 726 728 731 732 732 733 737 740 743 745 747 750 753 755 758 760 762 765 768 770 772 774 776 777 778 779 780 781 780 781 781 781 781 781 781 781 780 780 781 781 781 781 782 782 783 783 783 783 783 783 783 782 782 781 781 780 779 778 777 776 775 773 771
650 658 663 666 668 671 675 680 683 686 689 693 697 701 705 709 712 714 717 720 722 724 726 728 730 731 731 732 735 737 740 743 746 749 752 754 757 759 761 763 766 768 771 773 774 775 776 777 778 778 779 779 779 779 779 779 778 778 778 778 778 779 779 780 780 781 782 782 782 782 782 782 782 781 780 780 779 778 777 777 776 775 773 771 769
657 662 665 668 671 674 677 681 684 687 690 693 696 700 705 710 714 716 718 720 722 724 726 728 730 731 731 732 734 737 740 742 746 748 751 753 755 757 760 762 764 767 769 771 772 773 774 775 776 777 777 778 777 777 776 776 776 776 776 776 776 776 777 778 779 779 780 780 780 780 780 780 780 779 779 778 777 777 776 775 774 773 771 770 768
663 666 667 670 673 675 678 682 685 688 692 695 698 702 705 709 714 717 719 720 721 723 725 727 729 730 731 732 734 737 739 742 745 747 749 752 754 756 758 760 763 765 767 769 770 772 773 774 774 775 775 775 775 774 774 773 773 773 774 774 775 775 776 777 777 778 778 778 778 779 779 779 779 778 778 777 776 775 775 773 772 771 770 768 766
664 667 669 672 675 678 680 683 686 689 692 696 700 703 705 708 711 715 718 720 721 722 724 726 727 728 730 732 734 736 738 741 743 746 748 751 753 755 757 759 761 764 766 768 769 770 771 772 773 773 773 773 773 773 772 772 772 772 773 774 774 774 775 776 776 777 777 777 777 777 777 777 777 777 776 776 775 774 773 772 771 770 768 767 765
664 667 671 674 676 679 681 684 687 691 694 697 700 703 705 708 710 712 715 718 720 722 724 726 727 728 729 732 734 736 738 740 742 745 748 750 752 754 756 758 761 763 765 766 767 769 770 771 771 772 772 772 771 771 771 771 772 772 773 773 773 774 775 775 775 776 776 776 777 776 775 775 776 775 775 774 773 773 772 771 770 768 767 765 764
667 670 673 675 676 679 682 685 688 692 695 698 701 704 707 709 711 713 715 717 720 722 724 726 727 728 730 732 734 736 738 740 742 745 747 749 751 754 755 758 760 762 763 765 766 767 768 769 770 770 770 770 770 770 771 771 772 772 772 773 773 773 774 774 775 775 774 775 775 774 774 774 774 774 774 773 772 772 771 770 769 767 766 764 762
670 673 675 676 678 680 683 686 689 692 696 699 702 705 708 710 713 715 716 718 720 722 724 725 727 729 730 732 734 736 738 740 742 745 747 749 751 753 754 756 758 759 761 763 764 766 767 767 768 769 769 769 769 770 770 770 771 771 771 772 772 773 773 773 773 773 773 773 773 773 773 773 773 773 773 772 771 771 770 769 768 766 765 763 761
671 673 675 677 679 681 684 687 689 692 695 698 701 704 707 711 714 716 718 720 722 722 723 725 726 728 730 732 734 736 737 740 743 745 747 749 750 752 753 755 756 758 760 761 763 764 765 766 767 767 768 768 768 769 769 769 770 770 770 771 771 772 772 772 772 772 772 772 772 772 772 772 772 772 772 771 770 770 769 768 766 765 763 762 760
671 673 674 676 678 681 684 687 689 692 694 697 699 702 705 709 714 717 719 721 722 723 724 725 726 728 730 732 734 736 737 740 742 744 746 748 749 751 753 754 756 758 759 760 761 762 763 764 765 766 766 767 767 767 767 768 769 769 769 769 770 770 770 771 771 771 772 772 771 771 772 772 771 771 771 770 769 769 768 766 765 763 762 760 758
671 672 674 676 678 681 684 686 689 692 694 696 698 701 704 709 713 717 719 720 722 723 724 725 726 728 730 731 733 735 737 739 741 743 745 747 749 751 752 754 756 757 758 759 760 761 761 763 764 764 765 765 765 766 766 767 768 768 768 768 768 769 769 770 770 770 771 770 770 770 771 771 770 770 770 769 769 768 766 765 764 762 761 759 757
671 673 675 676 679 681 684 686 689 691 693 695 697 700 704 709 713 715 718 720 721 723 724 725 726 727 729 730 732 733 736 738 739 741 743 745 747 749 751 753 754 756 756 757 758 759 760 761 762 763 764 764 764 765 765 766 766 767 767 767 767 768 769 769 769 770 770 770 770 770 770 769 769 769 769 768 768 767 765 764 763 761 760 758 757
672 674 676 677 679 681 684 686 689 692 694 696 697 700 704 708 711 714 717 719 720 722 723 724 725 726 728 729 731 732 734 736 738 740 742 744 746 748 750 751 753 754 755 756 757 757 759 760 761 762 763 763 764 764 764 765 765 765 766 766 767 767 768 768 769 769 769 769 769 769 768 768 768 768 768 767 766 766 764 763 762 761 759 758 756
673 675 676 678 680 682 685 687 690 693 696 697 698 701 704 707 710 713 715 717 719 721 722 723 725 726 728 729 731 733 735 736 738 740 742 743 745 747 748 750 751 752 754 755 755 756 758 759 760 761 762 763 763 763 764 764 764 764 765 765 766 766 766 767 768 768 768 768 767 767 767 767 767 767 767 766 765 764 763 762 761 760 758 757 755
674 675 677 680 682 685 687 689 691 693 695 697 699 701 703 706 708 711 713 716 718 719 721 722 724 726 728 730 732 734 736 737 738 740 740 742 744 745 747 748 749 751 752 753 754 756 757 758 759 760 761 761 762 763 763 763 763 763 763 764 764 765 765 766 767 767 766 766 766 766 766 766 766 766 766 765 764 764 763 761 760 759 757 756 754
677 679 682 684 686 688 690 691 692 693 695 697 699 702 703 705 708 710 712 715 717 718 720 721 723 725 727 729 732 734 735 736 738 739 739 741 742 744 745 746 747 749 751 752 753 755 756 757 758 759 760 761 761 762 762 762 762 762 762 763 763 764 764 765 765 765 765 765 765 765 765 765 765 765 765 764 764 763 762 761 759 758 757 755 754
682 684 686 687 688 689 691 691 692 693 696 698 700 702 703 705 707 710 712 714 716 718 720 721 722 724 726 728 730 732 733 735 736 737 738 740 741 742 743 744 745 747 749 750 752 753 755 756 757 758 759 760 760 760 761 761 761 761 762 762 762 763 763 764 764 764 764 764 764 764 765 765 764 764 764 763 763 762 761 760 759 757 756 754 753
685 686 687 687 688 689 690 691 692 694 696 698 700 702 704 706 708 710 712 714 715 717 719 720 722 724 725 727 729 730 731 732 733 734 735 737 738 739 741 742 743 745 747 749 750 752 753 755 756 757 758 759 759 760 760 760 760 761 761 761 762 762 763 763 763 763 763 764 764 764 764 763 763 763 763 762 762 761 760 759 758 756 755 754 752
686 687 688 688 688 689 691 692 693 694 696 699 701 703 706 708 710 711 713 714 715 717 718 719 721 723 724 726 727 728 729 731 731 732 733 735 736 737 738 740 742 744 745 747 749 750 752 754 755 756 757 757 758 758 759 759 759 759 760 760 761 762 762 762 763 763 763 763 763 763 763 762 762 761 761 761 760 760 759 758 757 756 755 753 751
688 690 691 691 691 693 693 694 694 696 699 701 703 704 706 708 710 711 712 714 715 716 717 718 720 721 723 724 725 727 728 729 730 731 732 733 734 735 737 738 740 742 744 746 748 749 750 752 753 754 754 755 755 756 757 757 757 758 759 760 761 761 761 762 762 762 762 762 762 761 761 760 760 760 760 760 759 759 758 757 756 755 754 752 750
690 692 693 694 694 695 695 695 697 699 701 703 705 706 707 708 709 711 712 714 715 715 716 717 718 720 722 723 724 726 727 728 729 730 731 732 733 734 735 737 739 741 743 744 746 747 748 750 751 752 752 753 754 754 755 755 756 757 757 759 759 760 760 761 761 761 761 761 760 760 759 758 758 759 759 759 758 758 757 756 755 754 753 752 750
692 693 694 695 697 697 696 697 698 700 702 703 704 706 707 708 709 711 712 713 714 715 716 716 717 719 720 721 723 724 725 727 728 728 729 731 732 733 734 736 738 739 741 743 744 746 747 748 749 750 751 752 752 753 753 754 754 755 756 757 758 759 759 759 759 760 760 759 758 758 757 757 757 757 757 757 757 757 756 755 755 753 752 751 749
694 694 695 698 699 700 699 699 699 701 702 703 704 706 707 708 709 710 711 712 714 715 716 716 717 719 720 721 722 723 725 726 727 728 728 729 730 731 732 734 736 737 740 741 743 744 745 746 747 748 749 750 750 751 752 752 753 754 755 756 757 757 758 758 758 758 758 757 757 756 756 755 755 756 756 756 756 756 755 755 754 753 752 751 749